Temp
64 64 64 66 69 71 71 69 69 66 65 65 64 63 63 62 62 59 60 59 58 57 57 57 56 55 53 54 53 53 52 51 50 52 54 56 55 55 58 59 60 58 58
61 61 61 62 65 69 66 66 65 64 65 64 64 63 63 63 62 61 61 61 59 57 56 56 56 60 53 52 51 50 49 51 50 48 50 52 52 53 53 54 58 62 57
56 57 59 59 61 66 65 65 65 64 63 64 64 63 63 62 62 61 61 59 57 57 56 55 55 54 50 49 49 49 48 51 47 46 46 48 50 52 51 51 52 52 60
51 52 54 57 58 60 65 64 63 64 62 62 63 63 62 63 63 61 60 57 56 56 55 55 55 53 50 50 50 48 48 46 45 44 44 45 46 48 47 46 48 52 51
47 48 50 54 58 61 62 63 63 63 62 63 62 62 61 61 64 60 57 55 54 54 55 56 53 55 59 53 50 47 47 44 44 43 42 42 42 43 42 43 43 47 50
47 48 50 53 58 62 62 62 62 62 62 62 62 56 53 56 52 54 55 54 54 54 52 53 53 59 57 57 57 56 51 45 43 42 41 40 42 43 43 42 40 43 41
47 50 54 55 58 62 61 61 60 60 60 56 53 51 50 50 48 50 53 53 53 53 51 51 54 59 55 53 53 54 54 54 52 44 42 43 43 44 42 40 39 39 41
46 46 48 52 58 61 60 59 59 58 53 50 48 49 48 48 47 48 50 52 50 51 54 52 52 53 53 55 52 50 50 48 49 51 46 45 45 45 44 43 41 40 43
44 45 46 46 59 59 58 53 52 50 49 48 47 48 47 46 46 46 47 46 47 48 51 49 52 48 46 47 48 46 46 47 53 53 52 50 48 47 47 41 40 38 41
41 44 46 46 46 45 50 49 48 48 46 46 46 47 47 45 45 45 46 46 45 46 46 45 46 45 44 44 42 40 40 42 43 43 44 45 47 46 50 46 42 39 44
42 44 44 45 46 46 45 45 46 45 45 45 45 46 46 47 44 44 44 44 42 43 44 47 44 44 44 44 44 40 40 43 43 41 41 41 43 44 46 51 45 46 45
42 41 42 44 44 45 45 46 46 45 45 44 44 44 45 45 43 43 43 43 44 42 43 45 44 43 42 43 42 42 42 44 39 39 41 39 39 41 44 48 50 50 50
41 42 41 43 43 42 42 42 43 44 44 44 44 45 45 43 42 43 43 43 45 43 44 43 42 42 42 42 43 44 43 38 39 40 39 39 40 42 44 47 50 50 50
42 42 44 43 43 44 42 42 41 41 41 41 42 41 40 38 39 39 40 40 41 40 40 37 41 42 43 44 44 45 45 44 44 44 43 44 47 46 47 48 46 47 46
42 42 43 43 43 41 41 40 40 40 43 42 43 41 40 37 38 39 38 36 36 36 36 33 34 36 43 45 44 45 44 44 43 44 44 44 44 45 42 48 47 46 44
44 46 46 47 43 42 41 40 41 41 41 40 41 42 40 40 40 40 39 39 38 38 33 31 33 41 41 43 42 42 43 43 41 43 43 43 43 44 44 46 46 44 43
44 46 45 48 48 46 42 41 37 39 42 42 41 41 40 39 40 38 38 38 37 37 35 37 40 41 41 41 42 41 41 42 43 43 43 42 43 43 42 43 43 44 44
45 46 46 46 46 46 46 44 43 40 37 38 39 39 40 40 39 40 39 40 40 41 40 39 40 41 41 41 42 41 42 42 42 42 42 42 42 42 42 42 43 42 43
44 46 45 44 45 46 45 45 45 44 43 38 37 38 38 40 40 40 40 39 38 39 39 40 40 41 41 41 41 42 42 42 41 41 41 42 42 42 41 42 42 37 39
45 44 44 44 44 43 44 42 42 41 40 37 36 34 35 37 36 37 39 39 38 38 38 39 39 40 40 40 40 40 40 40 41 40 41 41 42 42 41 41 42 41 42
43 43 38 43 42 40 41 39 40 40 39 37 34 34 33 34 37 37 37 38 38 38 38 38 38 39 39 40 40 39 39 39 40 40 40 41 41 40 42 42 42 42 43
40 39 41 39 40 40 39 40 39 38 38 36 36 36 34 37 37 37 37 38 38 39 39 38 38 38 39 39 39 38 37 37 38 39 39 39 40 40 41 41 41 42 43
40 39 38 37 38 36 37 37 36 35 36 37 36 36 37 35 35 36 37 36 37 37 38 38 38 38 38 38 39 39 37 37 38 39 38 38 39 39 40 39 40 41 41
40 39 38 38 39 37 33 32 33 34 35 35 34 34 33 34 34 36 36 37 37 37 37 37 38 37 37 37 38 39 39 39 40 39 38 38 38 38 39 39 39 40 41
39 38 37 35 34 37 37 37 35 33 33 34 36 36 33 34 37 36 37 36 35 35 35 36 37 37 37 37 37 37 37 34 36 35 37 36 37 38 39 37 39 39 40
39 38 35 34 33 35 37 35 32 32 31 32 32 31 32 34 32 34 35 34 33 34 34 35 36 37 38 37 37 36 34 34 34 33 35 36 36 35 37 38 39 38 40
MSLP
1013.47 1012.68 1011.86 1010.60 1008.78 1007.13 1006.30 1006.33 1007.07 1007.60 1008.26 1009.46 1010.18 1011.15 1012.34 1011.98 1012.54 1012.90 1013.60 1014.24 1014.87 1015.10 1015.34 1015.58 1016.27 1016.60 1016.96 1017.20 1017.56 1017.74 1018.20 1018.28 1018.50 1018.04 1017.39 1016.87 1016.62 1016.19 1015.73 1015.31 1015.03 1014.79 1014.56
1013.24 1012.59 1011.89 1010.60 1009.37 1007.55 1006.66 1006.38 1006.78 1007.90 1008.34 1009.52 1009.76 1010.31 1011.58 1012.38 1012.43 1012.89 1012.84 1014.00 1014.85 1015.11 1015.46 1015.70 1016.35 1016.63 1017.10 1017.39 1017.54 1017.78 1018.12 1018.26 1018.49 1018.23 1017.65 1017.28 1017.11 1016.64 1016.47 1016.16 1015.64 1015.11 1014.77
1013.44 1012.29 1011.09 1010.03 1009.19 1008.37 1006.58 1006.15 1006.38 1007.39 1008.43 1009.61 1010.22 1010.80 1011.56 1012.32 1012.64 1012.63 1012.86 1013.81 1014.60 1014.90 1015.19 1015.58 1016.28 1016.72 1017.34 1017.58 1017.62 1017.74 1018.09 1018.16 1018.30 1018.28 1017.95 1017.41 1017.16 1017.03 1016.69 1016.45 1016.18 1015.76 1015.16
1013.71 1012.00 1010.45 1009.07 1008.14 1007.39 1005.91 1005.67 1006.00 1007.06 1007.92 1009.10 1010.08 1010.98 1011.70 1012.10 1012.28 1012.36 1013.16 1014.03 1014.52 1015.04 1015.32 1015.64 1016.01 1016.40 1017.18 1017.39 1017.60 1017.80 1017.96 1018.27 1018.31 1018.22 1018.19 1017.83 1017.66 1017.58 1017.41 1017.20 1016.34 1016.01 1015.38
1014.01 1012.40 1010.50 1009.04 1007.76 1006.63 1005.72 1005.62 1006.16 1007.02 1007.63 1008.59 1009.95 1011.04 1011.66 1012.07 1012.19 1012.40 1013.44 1014.35 1014.73 1015.29 1015.60 1015.88 1016.29 1016.27 1016.66 1016.97 1017.37 1017.74 1017.92 1018.22 1018.28 1018.19 1018.26 1017.76 1017.76 1017.96 1017.94 1017.76 1017.48 1016.73 1015.73
1013.92 1011.84 1010.00 1008.53 1007.28 1005.94 1005.17 1005.42 1006.14 1006.53 1007.85 1009.16 1009.96 1011.06 1011.93 1012.67 1012.31 1012.82 1013.73 1014.51 1015.13 1015.38 1016.04 1016.14 1016.49 1016.36 1016.42 1016.65 1016.84 1017.18 1017.43 1017.84 1017.96 1018.10 1018.14 1018.16 1018.03 1017.88 1017.75 1017.56 1017.60 1017.26 1016.69
1012.35 1011.36 1009.29 1007.83 1006.72 1005.33 1005.04 1005.38 1005.82 1007.20 1008.35 1009.26 1010.33 1011.31 1012.38 1013.00 1013.12 1013.73 1014.50 1014.98 1015.50 1015.91 1016.20 1016.08 1016.44 1016.83 1016.75 1016.48 1016.62 1017.07 1017.17 1017.45 1017.40 1017.31 1017.69 1017.74 1017.80 1017.76 1017.78 1017.37 1017.34 1017.33 1017.04
1012.32 1010.20 1008.62 1006.96 1005.85 1004.87 1004.63 1005.52 1005.82 1007.24 1008.51 1009.10 1011.14 1012.19 1013.00 1013.54 1014.02 1014.64 1015.29 1015.59 1016.28 1016.48 1016.42 1016.30 1016.12 1016.39 1016.75 1016.75 1016.53 1016.67 1016.90 1016.84 1016.99 1017.01 1016.76 1016.90 1017.21 1017.33 1017.41 1017.17 1017.09 1016.89 1016.32
1013.12 1011.12 1009.10 1006.32 1003.56 1003.98 1003.80 1005.04 1006.29 1006.95 1008.16 1010.04 1011.02 1012.48 1013.39 1014.19 1014.80 1015.44 1015.87 1016.61 1016.97 1016.94 1016.93 1016.55 1016.60 1016.93 1016.94 1016.94 1016.98 1016.95 1016.96 1016.64 1016.44 1016.67 1016.71 1016.66 1016.84 1016.83 1016.86 1017.04 1016.85 1016.87 1016.36
1014.29 1012.54 1010.53 1008.20 1006.48 1006.10 1006.98 1004.72 1006.19 1007.42 1007.98 1010.53 1011.49 1012.79 1013.86 1014.90 1015.63 1016.31 1016.62 1017.20 1017.56 1017.58 1017.05 1017.81 1017.50 1017.67 1017.68 1017.78 1017.39 1017.40 1017.31 1017.12 1016.85 1016.89 1017.03 1016.88 1016.66 1016.46 1016.37 1016.27 1016.39 1016.21 1015.86
1016.04 1013.97 1012.13 1010.65 1009.06 1007.69 1008.40 1009.66 1006.96 1008.69 1009.52 1010.59 1012.41 1013.28 1014.07 1015.37 1016.16 1016.56 1017.26 1017.61 1017.62 1017.60 1018.02 1017.78 1018.14 1018.34 1018.22 1017.80 1017.49 1017.33 1017.18 1017.04 1017.02 1016.94 1016.81 1016.80 1016.80 1016.25 1016.10 1015.62 1015.95 1015.66 1015.27
1017.64 1015.60 1014.37 1013.19 1010.92 1009.35 1011.55 1012.36 1009.10 1011.35 1011.35 1012.06 1013.08 1014.06 1015.10 1015.63 1016.38 1017.10 1017.56 1017.59 1017.66 1018.01 1017.70 1018.06 1018.81 1018.50 1017.82 1017.69 1017.42 1017.02 1016.90 1016.77 1017.02 1017.04 1016.70 1016.48 1016.63 1016.33 1015.79 1015.40 1015.05 1014.88 1014.71
1018.40 1017.00 1016.45 1015.33 1012.77 1013.46 1014.00 1012.73 1013.42 1014.46 1013.18 1013.70 1014.38 1014.38 1015.40 1016.90 1017.64 1017.87 1017.91 1017.98 1018.28 1018.41 1018.53 1017.78 1018.33 1018.28 1017.54 1017.25 1017.09 1016.77 1016.67 1016.69 1016.49 1016.77 1016.43 1016.19 1016.11 1015.79 1015.57 1015.06 1015.01 1014.51 1014.22
1018.55 1018.08 1017.60 1016.24 1014.75 1016.69 1015.00 1014.06 1014.88 1015.52 1016.69 1015.80 1016.00 1015.69 1017.22 1018.23 1018.38 1018.14 1018.22 1018.15 1018.48 1018.47 1018.27 1018.02 1017.96 1017.75 1017.18 1016.87 1016.63 1016.50 1016.25 1016.35 1016.18 1016.40 1016.19 1015.82 1015.38 1015.50 1015.03 1014.79 1014.83 1014.22 1014.32
1019.78 1018.83 1017.31 1016.34 1016.82 1015.22 1014.35 1017.39 1016.56 1017.23 1017.96 1016.83 1017.20 1016.68 1017.78 1018.78 1018.61 1018.46 1018.06 1018.29 1018.36 1018.78 1018.30 1017.94 1017.78 1017.66 1017.16 1016.61 1016.37 1016.10 1016.34 1016.25 1016.42 1016.16 1016.05 1015.78 1015.50 1015.45 1015.40 1014.75 1014.00 1014.04 1014.22
1019.82 1019.04 1018.10 1017.36 1016.93 1016.38 1017.22 1018.32 1017.64 1017.98 1017.78 1017.36 1017.88 1017.70 1018.44 1019.18 1018.27 1018.04 1017.82 1018.03 1018.52 1018.38 1018.68 1018.30 1017.66 1017.17 1016.95 1016.79 1016.49 1016.31 1015.97 1016.11 1016.14 1015.88 1015.83 1015.57 1015.33 1015.17 1015.46 1014.95 1014.17 1014.08 1014.02
1019.76 1019.25 1018.94 1017.95 1017.32 1017.51 1017.68 1017.44 1017.75 1018.39 1018.66 1019.21 1019.38 1018.94 1018.63 1018.53 1018.23 1018.26 1018.10 1017.83 1017.53 1017.75 1018.40 1018.04 1017.54 1017.31 1016.93 1016.62 1016.50 1016.16 1016.01 1015.77 1015.86 1015.83 1015.72 1015.52 1015.19 1014.83 1014.94 1015.03 1014.30 1014.18 1013.81
1021.02 1020.49 1019.62 1019.08 1018.71 1018.51 1018.21 1018.22 1018.87 1019.26 1019.24 1019.61 1019.23 1019.03 1018.87 1018.71 1018.39 1018.02 1018.04 1017.73 1017.93 1017.84 1017.90 1017.71 1017.39 1017.21 1017.07 1016.62 1016.34 1016.05 1015.76 1015.46 1015.52 1015.72 1015.70 1015.09 1014.79 1014.86 1015.07 1014.82 1014.43 1014.22 1013.82
1021.41 1020.60 1020.08 1019.90 1019.80 1019.73 1019.66 1019.66 1019.25 1018.99 1018.88 1019.32 1019.38 1019.03 1018.90 1018.75 1018.39 1018.83 1018.58 1018.58 1018.50 1018.17 1018.06 1017.85 1017.51 1017.28 1016.94 1016.69 1016.32 1016.20 1015.83 1015.61 1015.42 1015.42 1015.32 1015.12 1014.80 1014.77 1014.91 1014.57 1014.34 1014.13 1013.75
1022.27 1021.80 1021.44 1021.05 1020.42 1019.87 1019.64 1019.60 1019.44 1019.38 1019.36 1019.55 1019.90 1020.12 1019.62 1019.26 1019.18 1019.17 1018.68 1018.66 1018.66 1018.35 1017.93 1017.86 1017.49 1017.19 1016.74 1016.75 1016.38 1016.31 1015.91 1016.07 1015.51 1014.89 1015.36 1015.07 1014.70 1014.66 1014.60 1014.28 1014.04 1013.84 1013.50
1022.64 1022.37 1022.07 1021.90 1021.80 1021.63 1021.35 1021.04 1020.91 1020.72 1020.47 1020.56 1020.51 1020.30 1020.04 1019.60 1019.14 1019.21 1019.27 1018.99 1018.56 1018.37 1017.75 1017.46 1017.28 1016.87 1016.73 1016.64 1016.30 1016.26 1015.80 1015.81 1015.38 1015.17 1015.12 1014.98 1014.68 1014.53 1014.25 1013.92 1013.76 1013.52 1013.23
1023.40 1023.22 1022.97 1022.96 1022.65 1022.50 1022.24 1021.92 1021.77 1021.46 1021.04 1020.88 1020.86 1020.47 1020.01 1019.78 1019.50 1019.34 1019.26 1019.09 1018.67 1017.98 1017.53 1017.56 1017.22 1016.73 1016.40 1016.50 1016.49 1015.84 1015.46 1015.49 1015.32 1015.12 1014.99 1014.87 1014.60 1014.34 1014.03 1013.81 1013.44 1013.19 1012.91
1024.16 1023.99 1024.04 1023.86 1023.48 1023.21 1022.88 1022.58 1022.30 1022.05 1021.72 1021.34 1020.93 1020.54 1019.99 1019.64 1019.60 1019.50 1019.18 1018.78 1018.27 1017.96 1017.58 1017.29 1016.78 1016.47 1016.45 1016.28 1015.88 1015.56 1015.30 1015.02 1014.87 1014.74 1014.68 1014.57 1014.34 1014.10 1013.76 1013.56 1013.35 1013.02 1012.76
1024.87 1024.76 1024.69 1024.44 1024.07 1023.85 1023.60 1023.28 1023.03 1022.65 1022.29 1021.86 1021.38 1020.90 1020.50 1020.23 1019.91 1019.69 1019.38 1018.98 1018.47 1017.89 1017.43 1017.07 1016.68 1016.42 1016.13 1015.79 1015.42 1015.02 1014.72 1014.50 1014.33 1014.26 1014.21 1014.06 1013.87 1013.67 1013.40 1013.37 1013.21 1012.84 1012.57
1025.26 1025.18 1025.18 1025.05 1024.78 1024.31 1023.96 1023.72 1023.54 1023.15 1022.75 1022.35 1021.87 1021.47 1021.12 1020.70 1020.20 1019.78 1019.34 1018.96 1018.49 1018.04 1017.56 1017.06 1016.49 1015.97 1015.55 1015.14 1014.73 1014.41 1014.20 1014.04 1013.87 1013.77 1013.80 1013.82 1013.51 1013.36 1013.13 1013.08 1012.98 1012.79 1012.42
1025.35 1025.28 1025.22 1025.04 1024.88 1024.52 1024.15 1023.94 1023.88 1023.54 1023.24 1022.74 1022.30 1021.83 1021.38 1020.87 1020.35 1019.89 1019.47 1018.95 1018.40 1017.87 1017.21 1016.58 1015.95 1015.33 1014.81 1014.41 1013.92 1013.60 1013.50 1013.42 1013.28 1013.21 1013.21 1013.08 1012.88 1012.74 1012.68 1012.61 1012.54 1012.43 1012.14
Wind_Speed
18 15 14 16 18 17 7 8 11 11 15 13 12 11 8 9 7 7 7 7 7 7 6 7 6 6 4 4 3 3 2 2 2 3 2 3 4 5 7 6 5 5 5
20 19 16 15 17 16 5 10 13 12 12 10 13 14 12 9 7 8 10 8 8 7 7 7 7 4 4 4 3 4 4 3 2 4 3 3 3 4 4 5 6 6 5
22 21 20 17 14 16 8 11 14 15 12 13 10 10 10 6 6 8 8 8 7 7 7 8 6 6 5 3 3 3 2 2 2 1 4 2 2 5 5 4 5 6 7
23 22 21 19 17 17 8 13 15 15 15 14 10 9 9 8 7 8 10 8 7 7 7 7 6 6 7 5 3 3 2 2 2 2 2 2 2 3 3 5 8 7 9
22 22 22 20 18 19 10 11 14 13 13 14 12 11 7 5 6 10 9 7 8 7 6 4 5 8 8 7 4 4 3 1 1 1 3 2 3 3 3 2 3 7 9
23 23 21 20 17 17 15 16 15 15 15 13 11 12 11 7 16 16 10 7 7 6 4 4 4 5 7 10 9 7 6 4 1 1 2 2 3 2 2 2 3 5 8
23 21 19 17 16 10 11 11 15 16 14 14 14 14 13 10 16 16 13 6 6 5 3 3 1 2 4 5 7 8 6 7 8 4 3 3 2 2 1 3 2 2 6
21 19 16 15 16 15 17 15 14 11 15 16 14 13 13 10 16 14 12 7 6 4 1 1 2 3 5 4 5 5 5 5 4 4 6 5 4 4 3 3 4 4 5
22 19 18 19 10 13 16 18 17 18 18 13 14 14 14 12 17 16 11 7 6 6 6 7 4 6 9 9 4 3 3 3 5 4 4 4 7 8 7 2 4 2 6
23 19 16 20 17 19 13 19 16 18 19 13 15 13 16 12 15 14 10 4 4 4 7 6 12 7 9 9 5 4 4 2 3 5 6 5 7 8 11 6 4 3 4
21 18 19 19 18 20 22 13 17 16 17 16 14 11 11 10 11 14 12 5 4 5 3 2 1 5 5 6 5 2 5 5 7 4 5 4 5 5 5 3 4 3 1
15 19 19 17 17 19 18 11 19 14 14 13 12 10 7 8 14 11 9 7 5 2 1 3 3 9 5 7 6 9 11 8 3 4 5 4 4 4 4 5 6 4 4
18 14 14 12 20 17 16 15 14 12 12 11 7 7 8 8 5 7 7 9 6 2 4 6 10 12 12 9 10 9 4 3 3 3 3 3 3 4 5 5 5 6 5
15 12 10 11 17 8 9 12 9 9 7 8 7 10 8 6 4 4 3 4 6 6 8 7 11 14 15 15 8 5 3 3 2 3 3 3 3 4 4 4 4 3 3
8 9 7 7 3 6 12 7 6 5 2 6 6 7 6 3 1 4 4 3 3 5 6 3 4 4 4 3 1 3 3 3 3 3 3 5 5 5 5 5 3 2 4
10 9 8 7 1 5 4 3 10 6 9 13 12 8 6 4 4 7 6 7 7 5 2 3 3 3 4 3 2 2 1 3 3 3 4 4 4 6 6 5 4 4 5
11 14 8 9 10 7 1 2 4 4 5 6 7 7 6 2 5 7 9 8 7 3 1 3 3 3 3 2 3 3 3 3 4 3 3 5 5 4 4 5 4 5 5
8 12 8 8 9 9 8 6 3 3 3 3 1 3 3 5 8 12 11 8 5 3 2 3 4 4 4 4 3 3 3 3 2 3 5 3 4 4 5 5 4 4 5
6 9 9 7 8 9 7 6 7 8 7 4 3 5 6 9 12 10 9 4 4 5 5 5 5 4 4 4 4 4 4 4 3 3 4 4 5 3 6 4 4 5 6
9 14 10 8 8 9 10 7 8 8 8 7 7 4 4 7 7 6 7 6 6 5 5 5 5 5 5 5 5 5 5 5 4 2 5 5 4 4 6 4 4 4 5
6 8 9 8 8 6 8 6 7 6 6 3 3 2 3 5 7 7 7 7 7 6 6 5 5 5 5 5 5 5 4 5 5 4 5 5 5 5 5 3 4 5 4
5 5 6 6 7 8 8 8 8 7 7 5 3 3 5 5 6 7 7 7 7 7 5 6 6 5 5 6 6 5 5 6 6 5 5 5 5 5 4 4 6 4 5
6 6 6 5 6 7 8 8 8 8 8 8 6 7 7 6 6 7 7 8 8 8 7 6 7 6 6 6 6 6 6 6 6 5 5 5 5 5 5 3 5 4 4
6 6 6 6 6 4 4 5 5 7 8 8 6 7 6 6 6 7 6 8 8 8 8 8 8 9 9 7 6 6 6 7 5 3 7 6 5 5 4 3 5 6 7
4 4 4 4 5 6 4 5 5 5 5 6 7 6 6 6 7 6 7 7 7 7 10 10 8 10 10 12 11 11 10 7 6 4 5 8 8 7 5 3 4 5 7
2 3 3 3 4 4 5 3 4 5 5 5 5 5 6 7 6 5 8 8 7 9 11 8 10 14 14 11 12 10 7 8 8 8 7 8 8 7 6 5 8 4 8
Wind_Direction
336 335 325 322 316 299 233 170 160 148 146 152 151 152 175 160 158 152 141 131 123 129 127 119 106 109 80 64 63 65 47 74 234 286 287 302 322 339 350 5 1 356 336
327 324 318 320 318 299 209 149 146 159 148 157 162 154 162 179 171 160 145 145 149 139 132 109 119 108 98 88 79 58 60 31 40 299 261 329 23 347 346 4 349 5 343
321 319 315 315 317 312 175 158 146 146 157 156 166 160 162 170 162 163 138 135 132 133 129 120 126 123 107 121 98 67 70 13 352 281 304 323 324 358 355 355 353 344 350
316 313 309 307 310 314 210 163 147 150 149 148 163 158 164 172 167 131 121 125 115 114 114 123 137 132 151 140 134 139 134 35 347 349 311 323 39 332 17 344 351 350 339
310 305 299 296 297 304 177 166 150 153 151 147 152 163 150 125 133 119 109 110 111 113 115 124 137 155 167 162 158 190 158 145 302 335 309 6 359 342 6 312 322 328 330
308 302 293 287 285 271 176 163 156 149 143 157 149 113 100 92 87 86 100 101 107 115 144 132 178 202 192 179 206 185 175 170 249 277 297 294 278 258 291 359 340 347 334
317 310 286 266 271 225 164 157 162 153 151 113 112 108 98 87 76 75 74 88 88 94 110 119 133 106 173 196 228 228 235 246 225 200 243 248 285 266 285 320 305 272 276
331 328 325 306 251 201 152 149 143 133 115 109 104 98 96 81 73 63 55 52 47 16 354 268 176 226 258 224 148 179 227 237 260 247 210 226 223 256 244 227 249 264 272
342 343 344 346 240 170 147 130 122 110 109 99 105 103 95 82 71 60 58 44 30 14 17 17 46 63 42 31 40 4 297 311 354 33 350 303 292 286 266 306 293 323 304
347 348 359 23 29 42 15 119 110 112 101 111 95 96 97 94 85 73 64 51 41 23 57 58 65 69 43 37 52 25 345 297 1 337 326 312 294 282 274 237 237 250 295
347 343 11 25 38 52 56 354 87 86 96 91 96 91 96 108 92 80 69 76 49 26 357 33 57 41 6 340 314 254 238 274 305 300 277 279 277 273 277 268 249 231 264
346 7 11 22 39 40 42 10 47 66 68 90 98 100 101 93 105 103 103 90 76 46 4 12 296 293 299 284 287 257 259 267 276 268 268 265 278 284 280 279 265 255 235
358 12 28 16 53 48 42 38 42 30 44 53 48 98 89 79 68 75 47 23 354 322 340 19 341 318 311 303 284 276 247 237 237 270 274 262 253 254 284 284 276 267 265
2 357 20 37 46 46 81 63 55 40 25 52 59 78 79 69 54 50 40 25 358 357 356 341 315 301 285 265 271 283 253 238 251 266 278 275 286 294 304 285 274 273 286
331 323 324 14 44 43 46 18 43 26 11 81 66 79 88 69 59 53 32 355 345 311 327 323 315 301 294 340 125 76 36 14 333 308 309 309 308 305 300 291 278 273 274
352 355 356 6 46 76 79 81 53 55 55 56 58 95 85 140 21 3 331 301 292 282 328 297 298 304 323 339 6 340 11 303 278 287 295 293 301 306 298 301 304 289 275
4 5 343 5 16 29 130 88 87 348 29 68 57 72 95 235 333 333 342 342 338 58 239 285 292 322 304 311 284 276 264 253 271 278 285 290 295 305 300 291 314 306 300
360 360 9 20 17 12 10 17 79 184 174 130 211 47 270 339 4 31 12 358 357 335 316 324 317 324 326 325 315 294 287 274 275 283 273 286 287 301 295 289 303 301 294
359 7 11 12 10 15 10 18 29 23 45 102 55 32 3 21 33 16 3 5 347 349 343 338 335 324 327 325 322 319 320 303 272 277 297 281 285 289 279 276 281 281 289
4 5 22 11 4 15 11 13 20 16 22 57 50 29 358 23 22 4 4 353 340 331 331 322 323 325 334 320 319 322 328 315 312 342 301 297 296 269 280 268 276 283 300
9 13 9 19 8 13 6 9 13 16 7 95 85 37 340 35 10 356 342 337 337 326 327 326 314 312 309 308 308 292 300 299 297 303 294 291 293 299 285 273 279 272 275
13 13 12 18 9 18 15 13 11 7 2 13 13 353 13 26 3 348 336 328 323 321 322 311 298 299 306 299 285 284 283 277 275 275 280 287 293 291 293 299 277 274 268
1 25 17 3 4 16 9 3 5 4 357 358 0 358 1 2 351 335 333 331 329 325 314 305 303 297 288 286 288 284 274 266 268 266 268 272 275 282 265 287 297 299 295
20 20 7 8 357 13 11 352 358 353 355 346 349 346 346 339 326 318 315 317 314 316 316 311 301 290 286 281 284 279 271 271 260 282 297 267 269 265 255 253 296 309 301
49 36 7 4 347 346 348 353 350 340 337 331 336 334 325 315 314 316 317 317 306 306 302 296 289 284 282 282 277 274 277 273 271 260 253 268 261 266 266 255 256 290 293
36 46 18 2 339 331 337 339 348 331 327 325 320 314 308 310 302 311 313 309 301 301 294 288 284 284 285 283 277 271 257 265 263 247 244 248 243 240 239 245 266 259 279